[[{"header":{"parameterUnit":"m.s-1","parameterCategory":1,"la1":30.2991,"la2":30.254,"lo1":-89.0895,"lo2":-89.0444,"dy":0.0017,"dx":0.0017,"nx":28,"ny":28,"refTime":"2024-08-01T03:00:00:Z","depth":0,"parameterNumber":2,"parameterNumberName":"U-component_of_WINDS"},"data":[0,0,0,0,0,0,0,0,0,0,0,0,0,0,0,0,0,0,0,0,0,0,0,0,0,0,0,0,0,0,0,0,0,0,0,0,0,0,0,0,0,0,0,0,0,0,0,0,0,0,0,0,0,0,0,0,0,0,1.4779,1.4781,0,1.4897,1.4898,1.49,1.4934,1.4934,1.4933,1.4933,1.5054,1.5058,1.5062,0,0,0,0,0,0,0,0,0,0,0,0,0,1.4584,1.4587,1.4779,1.4781,1.4782,1.4897,1.4898,1.49,1.4935,1.4934,1.4933,1.4932,1.5053,1.5058,1.5062,0,0,0,0,0,0,0,0,0,0,0,0,0,1.4682,1.4588,1.4779,1.4813,1.4818,1.4896,1.4898,1.49,1.4935,1.4934,1.4933,1.4932,1.5052,1.5057,1.5063,1.5117,0,0,1.508,1.5083,0,0,0,0,0,0,0,0,1.4676,1.4689,1.4807,1.4811,1.4816,1.49,1.4874,1.4973,1.4935,1.489,1.4933,1.4932,1.5004,1.5013,1.5038,1.5122,1.5128,1.5081,1.5084,1.5087,1.5088,0,0,0,0,0,0,0,1.4669,1.4684,1.4826,1.4808,1.4814,1.4822,1.4835,1.4893,1.4951,1.4894,1.4897,1.491,1.5006,1.5032,1.5041,1.5129,1.5081,1.5086,1.5089,1.5092,1.526,1.5261,0,0,0,0,0,0,1.4657,1.4678,1.4822,1.4829,1.4742,1.4827,1.4841,1.4874,1.495,1.4961,1.4911,1.4911,1.5023,1.5034,1.5045,1.5111,1.5087,1.5092,1.5095,1.5259,1.5261,1.5262,0,0,0,0,0,0,1.4652,1.4669,1.4817,1.4755,1.4774,1.4831,1.4868,1.4877,1.4903,1.4963,1.4974,1.4927,1.5022,1.5037,1.5098,1.5116,1.5095,1.51,1.5258,1.526,1.5261,1.5244,0,0,0,0,0,0,1.4647,1.4667,1.4689,1.4755,1.4777,1.4868,1.4869,1.488,1.4912,1.4914,1.4981,1.4991,1.5023,1.5089,1.5103,1.5123,1.5104,1.5257,1.5259,1.5261,1.5243,1.5245,1.5246,0,0,0,0,0,1.4639,1.468,1.469,1.4707,1.4805,1.4869,1.4882,1.4918,1.4914,1.4935,1.4973,1.4989,1.5111,1.5095,1.5111,1.5133,1.5256,1.5258,1.5261,1.5243,1.5245,1.5246,0,0,0,0,0,0,1.4617,1.469,1.4701,1.4765,1.481,1.4875,1.4904,1.4919,1.4968,1.4967,1.501,1.5025,1.5082,1.5114,1.5094,1.5187,1.5184,1.519,1.5165,1.5167,1.5168,1.5159,1.5109,0,0,0,0,0,1.4619,1.4665,1.4726,1.4776,1.4798,1.4847,1.4876,1.4899,1.4949,1.4968,1.5011,1.5059,1.5107,1.5139,1.5188,1.5248,1.5262,1.5271,1.5272,1.5273,1.5277,1.5309,1.5313,1.527,1.527,1.527,0,0,1.4624,1.467,1.4696,1.4773,1.4811,1.4856,1.4863,1.4912,1.4946,1.4976,1.5035,1.5068,1.5123,1.5183,1.5212,1.5212,1.5292,1.5276,1.5276,1.5281,1.5312,1.5316,1.5319,1.5271,1.5271,1.5271,0,0,1.4657,1.4697,1.4741,1.4779,1.4836,1.4867,1.4877,1.494,1.4962,1.5022,1.5044,1.5085,1.5169,1.5207,1.5237,1.528,1.5295,1.5295,1.5303,1.5333,1.5336,1.5339,1.5353,1.5358,1.5299,1.5299,1.5299,0,1.4656,1.4726,1.4763,1.4809,1.4841,1.4869,1.4914,1.4948,1.5018,1.504,1.5038,1.5142,1.5182,1.5249,1.5259,1.5283,1.5296,1.5288,1.5333,1.5336,1.534,1.5353,1.5359,1.5299,1.5299,1.5299,1.5299,0,1.4722,1.477,1.4799,1.4864,1.49,1.4946,1.4987,1.5019,1.5038,1.5069,1.5128,1.5176,1.5233,1.5251,1.5271,1.5321,1.5319,1.5324,1.5322,1.5343,1.5356,1.5362,1.5298,1.5298,1.5298,1.5298,0,0,1.4745,1.4828,1.4838,1.4866,1.493,1.4968,1.5013,1.5068,1.5093,1.514,1.5179,1.5247,1.5252,1.5286,1.5311,1.5337,1.5365,1.534,1.5342,1.5342,1.5421,1.5415,1.5421,1.5376,1.5377,1.5378,1.5415,0,1.4785,1.4868,1.49,1.4968,1.5011,1.5036,1.5076,1.5118,1.5148,1.5189,1.5222,1.5269,1.5273,1.5293,1.532,1.5356,1.5382,1.5354,1.5411,1.5413,1.5396,1.5428,1.5424,1.5457,1.5421,1.5422,1.5423,0,1.4843,1.4888,1.496,1.5015,1.5034,1.507,1.5121,1.516,1.5208,1.5227,1.5264,1.5286,1.5333,1.5327,1.5392,1.5372,1.5397,1.5418,1.542,1.5427,1.5419,1.5435,1.5469,1.5473,1.5432,1.5431,1.543,0,1.4851,1.493,1.4982,1.5006,1.5073,1.5096,1.5125,1.5172,1.5202,1.5247,1.5266,1.5316,1.5344,1.5381,1.5416,1.5408,1.5477,1.5474,1.5494,1.5493,1.5508,1.5506,1.5545,1.5525,1.5524,1.5524,1.5524,0,1.4891,1.4934,1.4986,1.5018,1.5065,1.5101,1.5147,1.5177,1.5218,1.5256,1.5281,1.5315,1.5359,1.5399,1.5426,1.5474,1.5487,1.5503,1.551,1.5501,1.5499,1.5518,1.5516,1.5526,1.5525,1.5525,1.5525,0,1.4908,1.4945,1.5003,1.506,1.5076,1.5108,1.5156,1.5188,1.5217,1.5264,1.5277,1.5324,1.5372,1.5409,1.5473,1.549,1.5541,1.5549,1.5525,1.5528,1.5545,1.5543,1.5598,1.5606,1.558,1.558,1.5581,0,1.4931,1.4964,1.5024,1.505,1.5079,1.5121,1.5151,1.5187,1.5218,1.5273,1.5297,1.5346,1.5388,1.5463,1.5502,1.555,1.5558,1.5574,1.5566,1.5555,1.5557,1.5554,1.5557,1.5575,1.5575,1.5575,1.5575,0,1.4968,1.4984,1.5026,1.5074,1.5109,1.5149,1.5189,1.5209,1.5252,1.5285,1.5333,1.5365,1.5428,1.5476,1.5527,1.5556,1.5572,1.5577,1.5584,1.5575,1.5559,1.5567,1.5527,1.5576,1.5576,1.5576,1.5576,1.5576,1.4988,1.5017,1.5063,1.5109,1.5142,1.5179,1.521,1.5243,1.5284,1.5337,1.5356,1.5405,1.545,1.552,1.5549,1.5587,1.5589,1.5599,1.5601,1.5603,1.5601,1.5553,1.5597,1.5597,1.5597,1.5597,1.5597,0,1.5025,1.5055,1.5096,1.5151,1.5186,1.5197,1.5242,1.527,1.5314,1.5354,1.5393,1.5448,1.5494,1.5535,1.5583,1.5606,1.5614,1.5617,1.5616,1.5622,1.5599,1.5587,1.5609,1.5609,1.5609,1.5609,1.5609,1.5609,1.5048,1.5097,1.5118,1.5183,1.5213,1.5262,1.5286,1.5319,1.535,1.541,1.5448,1.5474,1.5515,1.5565,1.5607,1.5618,1.5634,1.5635,1.5648,1.5625,1.5624,1.5622,1.5612,1.5638,1.5638,1.5667,1.5668,1.5668]},{"header":{"parameterUnit":"m.s-1","parameterCategory":1,"la1":30.2991,"la2":30.254,"lo1":-89.0895,"lo2":-89.0444,"dy":0.0017,"dx":0.0017,"nx":28,"ny":28,"refTime":"2024-08-01T03:00:00:Z","depth":0,"parameterNumber":3,"parameterNumberName":"V-component_of_WINDS"},"data":[0,0,0,0,0,0,0,0,0,0,0,0,0,0,0,0,0,0,0,0,0,0,0,0,0,0,0,0,0,0,0,0,0,0,0,0,0,0,0,0,0,0,0,0,0,0,0,0,0,0,0,0,0,0,0,0,0,0,4.4031,4.4031,0,4.3973,4.3972,4.3971,4.3931,4.393,4.393,4.393,4.3865,4.3864,4.3862,0,0,0,0,0,0,0,0,0,0,0,0,0,4.4103,4.4102,4.4031,4.4031,4.403,4.3973,4.3972,4.3971,4.3931,4.393,4.393,4.3929,4.3866,4.3864,4.3862,0,0,0,0,0,0,0,0,0,0,0,0,0,4.4061,4.4102,4.4032,4.4003,4.4,4.3973,4.3972,4.3971,4.3931,4.393,4.393,4.3929,4.3866,4.3864,4.3862,4.3858,0,0,4.3855,4.3854,0,0,0,0,0,0,0,0,4.4063,4.4058,4.4008,4.4005,4.4001,4.3959,4.3974,4.3933,4.3931,4.3957,4.393,4.3929,4.3896,4.3892,4.3882,4.3855,4.3852,4.3855,4.3854,4.3853,4.3852,0,0,0,0,0,0,0,4.4066,4.4061,4.4008,4.4007,4.4003,4.3991,4.3985,4.3966,4.393,4.3954,4.3951,4.3945,4.3894,4.3884,4.388,4.3851,4.3855,4.3853,4.3852,4.3851,4.3816,4.3816,0,0,0,0,0,0,4.4074,4.4063,4.401,4.4006,4.4032,4.399,4.3983,4.3973,4.393,4.3923,4.3946,4.3944,4.3888,4.3882,4.3877,4.3868,4.3853,4.3851,4.385,4.3816,4.3816,4.3816,0,0,0,0,0,0,4.4076,4.407,4.4012,4.4034,4.4026,4.399,4.3978,4.3972,4.3961,4.3923,4.3916,4.3942,4.3887,4.388,4.3863,4.3865,4.385,4.3848,4.3815,4.3816,4.3816,4.3851,0,0,0,0,0,0,4.4078,4.4071,4.407,4.4034,4.4025,4.4,4.3978,4.3971,4.3958,4.3955,4.3918,4.3911,4.3886,4.3866,4.3861,4.3862,4.3846,4.3815,4.3815,4.3816,4.3849,4.3853,4.3855,0,0,0,0,0,4.4081,4.4082,4.407,4.4064,4.4023,4.4001,4.3995,4.3968,4.3958,4.3956,4.3932,4.3912,4.3866,4.3865,4.3858,4.3859,4.3814,4.3815,4.3816,4.3848,4.3852,4.3855,0,0,0,0,0,0,4.4117,4.4076,4.4063,4.4053,4.4031,4.3994,4.3991,4.3973,4.3952,4.395,4.3915,4.3907,4.3893,4.3874,4.3873,4.3852,4.3838,4.3837,4.3865,4.3868,4.3871,4.3875,4.3845,0,0,0,0,0,4.4125,4.4111,4.4075,4.4069,4.4059,4.4027,4.4016,4.3997,4.3972,4.3962,4.3936,4.3912,4.3891,4.3879,4.3858,4.3847,4.3837,4.3844,4.3847,4.385,4.3849,4.384,4.3842,4.3819,4.3819,4.3819,0,0,4.4138,4.4114,4.4108,4.4076,4.4057,4.4042,4.4019,4.4005,4.3993,4.3959,4.3941,4.3922,4.3892,4.3877,4.3869,4.3861,4.3854,4.3851,4.3853,4.3851,4.3841,4.3843,4.3845,4.3819,4.3819,4.3819,0,0,4.4156,4.4137,4.4129,4.4111,4.4082,4.4061,4.4059,4.4025,4.4011,4.3992,4.3967,4.3951,4.3918,4.3897,4.3882,4.3891,4.3871,4.3885,4.39,4.3892,4.3894,4.3895,4.3897,4.3898,4.3885,4.3885,4.3885,0,4.4176,4.4154,4.4127,4.4114,4.41,4.4071,4.4062,4.4044,4.401,4.4,4.3992,4.3949,4.3926,4.3906,4.3908,4.3897,4.3892,4.3889,4.3896,4.3897,4.3898,4.3899,4.39,4.3887,4.3887,4.3887,4.3886,0,4.418,4.4165,4.4162,4.4131,4.4116,4.4106,4.4075,4.4064,4.4046,4.4025,4.4006,4.3978,4.3951,4.3945,4.3927,4.3921,4.3916,4.3903,4.3887,4.3902,4.3903,4.3903,4.389,4.3889,4.3888,4.3888,0,0,4.4217,4.4172,4.4171,4.4156,4.4122,4.4109,4.4096,4.4071,4.4061,4.4038,4.4025,4.3998,4.3984,4.3967,4.3947,4.394,4.3946,4.3926,4.3925,4.393,4.3936,4.3946,4.3947,4.3934,4.3934,4.3934,4.3938,0,4.4228,4.4205,4.418,4.4165,4.415,4.4121,4.411,4.4087,4.4067,4.405,4.4027,4.4007,4.3992,4.3981,4.3973,4.3948,4.3947,4.3947,4.3919,4.3918,4.3926,4.3947,4.3958,4.3963,4.3938,4.3938,4.3938,0,4.4238,4.4218,4.4201,4.4168,4.4161,4.4151,4.4125,4.411,4.4083,4.4069,4.405,4.4028,4.4011,4.3999,4.3973,4.3974,4.3961,4.3947,4.3946,4.3941,4.3928,4.3942,4.3964,4.3965,4.3938,4.3938,4.3938,0,4.4265,4.4234,4.422,4.4208,4.4169,4.4163,4.4146,4.4119,4.4105,4.4082,4.4072,4.4047,4.4033,4.4013,4.3984,4.3978,4.3961,4.3947,4.3947,4.3948,4.3944,4.3944,4.3963,4.3938,4.3938,4.3938,4.3938,0,4.4279,4.427,4.4231,4.4222,4.421,4.4181,4.417,4.415,4.4126,4.4111,4.4085,4.4072,4.4035,4.4017,4.3994,4.3976,4.397,4.3956,4.395,4.3958,4.3959,4.3948,4.3946,4.3938,4.3938,4.3938,4.3938,0,4.4307,4.4281,4.4264,4.4229,4.422,4.4213,4.4182,4.4171,4.415,4.4132,4.4126,4.4091,4.4068,4.4038,4.4005,4.399,4.3973,4.3965,4.3983,4.3979,4.398,4.398,4.3992,4.3991,4.3968,4.3968,4.3968,0,4.4317,4.4309,4.4274,4.4263,4.4248,4.4231,4.4217,4.4188,4.4174,4.4142,4.4134,4.411,4.4088,4.4052,4.4023,4.3997,4.3987,4.3993,4.3983,4.399,4.3985,4.3985,4.3984,4.3995,4.3995,4.3996,4.3996,0,4.4337,4.4324,4.4306,4.4283,4.4268,4.4248,4.4227,4.4219,4.4185,4.417,4.4147,4.4131,4.4098,4.4072,4.4043,4.4023,4.4003,4.4,4.3998,4.4005,4.4016,4.4008,4.3988,4.3999,4.3999,4.3998,4.3998,4.3998,4.4355,4.4346,4.432,4.43,4.4282,4.4263,4.4251,4.4228,4.4209,4.4181,4.4165,4.4142,4.4113,4.4072,4.4053,4.4033,4.4025,4.4023,4.4023,4.4022,4.4024,4.402,4.4028,4.4028,4.4027,4.4027,4.4027,0,4.4372,4.4354,4.4336,4.4308,4.4292,4.4277,4.4252,4.4239,4.422,4.4196,4.4176,4.4149,4.4124,4.4094,4.4067,4.4057,4.4046,4.405,4.405,4.4045,4.4033,4.4037,4.4059,4.4059,4.4059,4.4059,4.4059,4.4059,4.4379,4.4363,4.4348,4.4322,4.4304,4.4282,4.427,4.4251,4.4232,4.4203,4.4183,4.4164,4.4137,4.4108,4.4084,4.4075,4.4066,4.4072,4.406,4.4049,4.4046,4.4044,4.4047,4.4071,4.4071,4.4074,4.4074,4.4074]}]]